sat.trackr.live / text

‹ back to catalog

STARLINK-11492 [DTC]

NORAD 62224 · 2024-231G

PAYLOAD ACTIVE UNKNOWN

§ Identity

Operator
Country
US
Launch date
2024-12-05
Launch site
AFWTR
Launch vehicle
Mass (kg)
RCS (m²)

Purposes: comms

External: N2YO · Heavens-Above · Gunter

§ Orbital elements

Epoch: 2026-09-21T06:03:33.737184Z

Period
91.74 min
Inclination
53.1557°
Eccentricity
0.0001074
Mean motion
15.69737567 rev/d
Perigee alt
358.9 km
Apogee alt
360.4 km
Semi-major
6,737.8 km
B*
9.4077e-4
RAAN
217.4592°
Arg perigee
94.7129°
Mean anomaly
265.4011°
Rev number
10,412

§ Raw data

STARLINK-11492 [DTC]1 62224U 24231G   26264.25247381  .00115109  00000+0  94077-3 0  99962 62224  53.1557 217.4592 0001074  94.7129 265.4011 15.69737567104121

JSON: /api/v1/satellites/62224 · /tle

For live sub-satellite position, see the globe view (requires WebGL).

§ Visibility from observer

Set your observer location to see the next 7 days of passes ≥ 10°. The values pass through the URL so the page stays shareable.

No JS? Fill the form by hand. The geolocation button needs JavaScript.